www.pogodaiklimat.ru

Погода и климат >> Архив погоды >> Кувейт >> Sabriyah


ПОГОДА в Sabriyah

  • Прогноз погоды в Sabriyah
  • Монитор погоды в Sabriyah
  • Климат города

АРХИВ ПОГОДЫ в Sabriyah

Время (UTC), дата Ветер
(напр.,м/с)
 
Видим.   Явления Облачность Т
(С)
Тd
(С)
f
(%)
Тe
(С)
Тes
(С)
Комфортность P
(гПа)
Po
(гПа)
Тmin
(С)
Tmax
(С)
R
(мм)
R24
(мм)
S
(см)
00 14.02 СЗ 8-10
{19}
5000 м слаб. ливневой дождь {туман} н/о +16.5 +11.9 74 +15 +15 1016.4 1016.0
03 14.02 СЗ 7-9
{11}
14 км {ливн. осадки, дождь} н/о +14.1 +11.6 85 +12 +12 1018.8 1019.0
06 14.02 С 9-11
{11}
8000 м дымка {ливн. осадки, дождь} н/о +14.8 +10.5 75 +13 +13 1021.8 1022.0
09 14.02 С 6-9
{10}
16 км н/о +20.2 +9.8 51 +21 +21 комфорт 1020.7 1021.0
12 14.02 СЗ 6-9
{10}
20 км н/о +23.0 +6.3 34 +24 +24 комфорт 1019.6 1020.0
15 14.02 С 4-5
{10}
19 км н/о +20.3 +5.5 38 +21 +21 комфорт 1020.6 1021.0
18 14.02 С 2-2
{10}
20 км н/о +16.5 +5.6 48 +17 +17 1022.0 1022.0
21 14.02 С 3 20 км н/о +13.1 +5.0 58 +12 +12 1022.0 1022.0 +12.9 +23.1
00 15.02 СЗ 3-3
{5}
20 км н/о +10.9 +4.8 66 +9 +9 1022.0 1022.0
03 15.02 СЗ 3-3
{4}
20 км н/о +9.1 +4.6 73 +7 +7 1022.8 1023.0
06 15.02 СЗ 3-4
{4}
16 км н/о +15.5 +6.1 53 +15 +15 1023.8 1024.0
09 15.02 С 2-4
{5}
20 км н/о +22.0 +1.2 25 +22 +22 комфорт 1023.3 1023.0
12 15.02 С 3-4
{8}
20 км н/о +22.6 +0.3 23 +22 +22 комфорт 1021.3 1021.0
15 15.02 Ю 3-3
{7}
20 км {ливн. осадки, дождь} н/о +21.1 +2.8 30 +21 +21 комфорт 1020.6 1021.0
18 15.02 СВ 3-4
{7}
20 км {ливн. осадки, дождь} н/о +18.4 +7.7 50 +19 +19 1020.4 1020.0
21 15.02 СЗ 3 20 км {ливн. осадки, дождь} н/о +16.9 +8.2 56 +17 +17 1022.4 1022.0 +9.0 +24.1
00 16.02 С 4-4
{5}
20 км {ливн. осадки, дождь} н/о +15.5 +5.2 50 +15 +15 1020.7 1021.0
03 16.02 С 2-2
{4}
19 км н/о +13.9 +5.2 56 +14 +14 1021.0 1021.0
06 16.02 СВ 4-5
{5}
11 км н/о +17.4 +10.7 65 +17 +17 1021.4 1021.0
09 16.02 ЮВ 5-7
{7}
13 км н/о +23.7 +11.3 46 +25 +25 комфорт 1019.9 1020.0
12 16.02 ЮВ 8-10
{11}
17 км н/о +23.3 +8.9 40 +25 +25 комфорт 1017.9 1018.0
15 16.02 ЮВ 8-11
{11}
7000 м дымка н/о +19.4 +15.7 79 +20 +20 1016.8 1017.0
18 16.02 ЮВ 3-4
{12}
4700 м дымка н/о +18.2 +16.5 90 +19 +19 1017.7 1018.0
21 16.02 ЮВ 7 5000 м дымка н/о +18.0 +15.9 88 +17 +17 1016.4 1016.0 +13.4 +26.0
00 17.02 ЮВ 6-7
{10}
4800 м дымка н/о +17.5 +15.5 88 +17 +17 1015.2 1015.0
03 17.02 ЮВ 8-9
{9}
5000 м дымка н/о +17.1 +14.9 87 +16 +16 1015.4 1015.0
06 17.02 Ю 5-10
{12}
7000 м дымка н/о +21.4 +15.3 68 +25 +25 комфорт 1016.5 1017.0
09 17.02 Ю 7-12
{12}
7000 м дымка н/о +25.4 +14.2 50 +28 +28 жарко 1013.9 1014.0
12 17.02 ЮВ 13-16
{16}
6000 м дымка н/о +25.8 +13.2 46 +28 +28 жарко 1011.2 1011.0
15 17.02 ЮВ 11-13
{16}
9000 м дымка н/о +21.8 +14.8 64 +25 +25 комфорт 1010.6 1011.0
18 17.02 ЮВ 10-12
{16}
9000 м дымка н/о +20.6 +14.5 68 +23 +23 комфорт 1010.4 1010.0
21 17.02 Ю 12 10 км н/о +21.0 +14.2 65 +23 +23 комфорт 1007.6 1008.0 +16.9 +27.4
00 18.02 Ю 8-14
{17}
8000 м слаб. дождь {дымка} н/о +20.3 +15.1 72 +22 +22 комфорт 1006.2 1006.0
03 18.02 Ю 4-10
{16}
9000 м дымка {ливн. осадки, дождь} н/о +20.0 +14.3 70 +22 +22 комфорт 1006.6 1007.0
06 18.02 З 9-12
{16}
5000 м в посл. час дождь {ливн. осадки} н/о +20.5 +12.9 62 +22 +22 комфорт 1011.2 1011.0
09 18.02 СЗ 13-17
{19}
н/о н/о +21.9 -0.1 23 +21 +21 комфорт 1012.3 1012.0
12 18.02 СЗ 8-10
{19}
н/о н/о +22.9 -0.5 21 +22 +22 комфорт 1012.0 1012.0
15 18.02 С 2-3
{10}
н/о н/о +20.6 +0.2 26 +21 +21 комфорт 1012.9 1013.0
18 18.02 СВ 1-2
{10}
н/о н/о +18.3 +1.2 32 +19 +19 1013.8 1014.0
21 18.02 ЮЗ 3 н/о н/о +15.9 +5.4 50 +16 +16 1013.3 1013.0 +15.8 +24.3
00 19.02 ЮЗ 1-2
{3}
н/о н/о +14.4 +1.1 40 +15 +15 1012.9 1013.0
03 19.02 ЮЗ 3-3
{3}
н/о н/о +13.6 +2.3 46 +13 +13 1013.8 1014.0
06 19.02 З 8-10
{10}
н/о н/о +18.3 +2.1 34 +18 +18 1015.4 1015.0
09 19.02 З 8-13
{13}
н/о н/о +22.7 +1.1 24 +22 +22 комфорт 1014.3 1014.0
12 19.02 З 7-10
{14}
н/о н/о +22.3 +3.0 28 +22 +22 комфорт 1013.9 1014.0
15 19.02 СЗ 6-7
{10}
н/о н/о +20.7 +1.0 27 +21 +21 комфорт 1015.0 1015.0
18 19.02 С 4-4
{10}
н/о н/о +16.5 +0.6 34 +16 +16 1016.4 1016.0
21 19.02 С 4 н/о н/о +13.8 +3.1 48 +13 +13 1016.8 1017.0 +12.4 +23.3
00 20.02 СЗ 3-3
{5}
н/о н/о +11.1 +2.2 54 +10 +10 1016.7 1017.0
03 20.02 СЗ 2-3
{4}
н/о н/о +9.3 +2.3 62 +8 +8 1017.4 1017.0
06 20.02 СЗ 2-3
{4}
н/о н/о +15.1 +4.1 48 +15 +15 1018.2 1018.0
09 20.02 СЗ 4-7
{7}
н/о н/о +21.2 +2.9 30 +21 +21 комфорт 1017.2 1017.0
12 20.02 З 4-6
{10}
н/о н/о +22.1 +1.3 25 +22 +22 комфорт 1015.0 1015.0
15 20.02 СЗ 4-4
{8}
н/о н/о +20.7 +1.8 29 +21 +21 комфорт 1015.0 1015.0
18 20.02 С 3-4
{8}
н/о н/о +18.4 +2.8 35 +19 +19 1015.2 1015.0

 

Местоположение метеостанции Sabriyah (Кувейт): широта 29.75 долгота 47.85 высота над уровнем моря 56 м.

В архиве по умолчанию представлена погода в Sabriyah за последнюю неделю. Архивные данные за месяц целиком и за предыдущие месяцы, начиная с января 2011 года, Вы можете получить, выбрав интересующий диапазон дат из раскрывающегося списка и нажав кнопку "Ввод!".

Внимание! Время в таблицах - всемирное. Для получения местного времени необходимо прибавить поправку, которая в Sabriyah равна 3 ч.

Смотрите также архив погоды в соседних городах и на ближайших метеорологических станциях:

Погода в Jal Aliyah (Кувейт) (30 км)
Погода в Abdaly (Кувейт) (39 км)
Погода в Mitribah (Кувейт) (47 км)
Погода в Kuwait City (Кувейт) (51 км)
Погода в Al-Shuaiba (Кувейт) (51 км)
Погода в Jahra (Кувейт) (51 км)
Погода в Bubiyan (Кувейт) (51 км)
Погода в Experimental Farm (Кувейт) (52 км)
Погода в Failaka Island (Кувейт) (52 км)
Погода в Sulaibiya (Кувейт) (55 км)

Пояснения к столбцам:

Ветер - указаны скорость ветра в м/с - средняя за 10 мин, порывы в срок и между сроками (в фигурных скобках) и направление, откуда дует ветер: С - северный, СВ - северо-восточный, В - восточный, ЮВ - юго-восточный, Ю - южный, ЮЗ - юго-западный, З - западный, СЗ - северо-западный.
Видимость - горизонтальная дальность видимости в метрах или километрах. При видимости от 1 до 10 км при отсутствии осадков обычно наблюдается дымка, при ухудшении видимости до 1 км и менее - туман. В сухую погоду видимость может ухудшаться дымом, пылью или мглою.
Явления - указаны атмосферные явления, наблюдавшиеся в срок или в последний час перед сроком; фигурными скобками обозначены явления, наблюдавшиеся между сроками (за 1-3 часа до срока); квадратными скобками обозначены град или гололедные отложения с указанием их диаметра в мм.
Облачность - указаны через наклонную черту общая и нижняя облачность в баллах и высота нижней границы облаков в метрах; квадратными скобками обозначены формы облаков: Ci - перистые, Cs - перисто-слоистые, Cc - перисто-кучевые, Ac - высококучевые, As - высокослоистые, Sc - слоисто-кучевые, Ns - слоисто-дождевые, Cu - кучевые, Cb - кучево-дождевые. Подробнее классификацию облаков см. в Атласе облаков (PDF).
T - Температура воздуха - температура, измеренная на высоте 2 м над землей.
Td - Температура точки росы - температура, при понижении до которой содержащийся в воздухе водяной пар достигнет насыщения.
f - Относительная влажность воздуха - влажноcть воздуха, измеренная на высоте 2 м над землей.
Te - Эффективная температура - температура, которую ощущает одетый по сезону человек в тени. Характеристика душности погоды. При расчете учитывается влияние влажности воздуха и скорости ветра на теплоощущения человека.
Tes - Эффективная температура на солнце - температура, которую ощущает человек, с поправкой на солнечный нагрев. Характеристика знойности погоды. Зависит от высоты солнца над горизонтом, облачности и скорости ветра. Ночью, в пасмурную погоду, а также при ветре 12 м/с и более поправка равна нулю.
P - Атмосферное давление - приведенное к уровню моря атмосферное давление.
Po - Атмосферное давление - измеренное на уровне метеостанции атмосферное давление.
Tmin - Минимальная температура - минимум температуры воздуха на высоте 2 м над землей.
Tmax - Максимальная температура - максимум температуры воздуха на высоте 2 м над землей.
R - Количество осадков - Количество выпавших осадков за период времени, мм. При наведении курсора мыши на число - период времени, за который выпало указанное количество осадков.
R24 - Количество осадков - Количество выпавших осадков за 24 часа, мм.
S - Снежный покров - Высота снежного покрова, см. При наведении курсора мыши на число - состояние снежного покрова и степень покрытия местности в баллах.